Location: Newark
(13.8117°N, 3.6025°W)
Time: 18:26:19
(UTC+00:00)

Explorer 11/Cluster Stage 4 - Pass Details

Date: 31 August 2019
Orbit: 467 x 1259 km, 28.8° (Epoch: 14 October)

Event Time Altitude Azimuth Distance (km) Brightness Sun altitude
Rises 06:15:12 0° 264° (W) 3,013 8.9 2.1°
Reaches altitude 10° 06:17:29 10° 271° (W) 2,212 8.3 2.7°
Maximum altitude 06:22:28 41° 342° (NNW) 1,201 7.5 3.9°
Drops below altitude 10° 06:28:40 10° 51° (NE) 2,750 10.5 5.4°
Sets 06:31:49 0° 57° (ENE) 3,833 11.5 6.1°
